Погода в Паулистане

Бразилия     8°08′01″S   41°08′46″W
темп.,
°C
ветер,
м/с
пор.,
м/с
влажн.,
%
обл.,
%
осадки,
мм/ч
давл.,
гПа
погр.,
м
27 февраля, сб
сб2700:00+21св008888 0.0 101123
03:00+23ю017894 0.0 101023
06:00+21юв228597 0.2 101143
09:00+27вюв346492 0.4 1013723
12:00+32в234485 0.3 10111837
15:00+31св134982 0.9 10081199
18:00+24с238697 7.5 100875
21:00+23св378798 12.1 1010146
28 февраля, вс
вс2800:00+21ссз2595100 1.4 1010298
03:00+21с0095100 1.9 100954
06:00+21зюз2295100 3.5 1011140
09:00+23юв3686100 6.0 1013585
12:00+22с2392100 2.4 1011291
15:00+22зсз1290100 3.6 1008187
18:00+24всв118277 1.0 100724
21:00+21сз119388 1.0 100823
1 марта, пн
пн100:00+20сз009572 0.0 100923
03:00+21юв239181 0.4 100868
06:00+21вюв4992100 0.1 1009288
09:00+26вюв5772100 0.1 1011817
12:00+31в465367 1.4 10091604
15:00+30в465568 3.6 10061602
18:00+26ссв237161 0.4 100634
21:00+22ссв119347 0.6 100925
2 марта, вт
вт200:00+22вюв228844 1.3 100925
03:00+21вюв4129222 4.1 1009478
06:00+21вюв3119395 1.8 1010429
09:00+25вюв697478 1.8 1012933
12:00+30вюв685050 0.3 10111773
15:00+30вюв574968 0.3 10081883
18:00+27всв346127 0.0 100871
21:00+24всв237016 0.0 101029
3 марта, ср
ср300:00+24всв118184 0.5 101223
03:00+22вюв4118975 1.0 1012424
06:00+21юв4109359 0.7 1013395
09:00+25вюв577454 0.8 1015720
12:00+29в456516 2.9 10131139
15:00+29в466321 9.6 10101342
18:00+26вюв236981 0.5 101024
21:00+23св118040 0.5 101224